TimeCST,TemperatureF,Dew PointF,Humidity,Sea Level PressureIn,VisibilityMPH,Wind Direction,Wind SpeedMPH,Gust SpeedMPH,PrecipitationIn,Events,Conditions,WindDirDegrees,DateUTC
12:13 AM,37.4,33.8,87,29.97,10.0,NW,19.6,-,N/A,,Overcast,320,2011-11-27 06:13:00
12:54 AM,37.9,33.1,83,29.99,10.0,NW,17.3,-,N/A,,Overcast,320,2011-11-27 06:54:00
1:54 AM,37.4,33.8,87,29.98,10.0,NW,17.3,25.3,N/A,,Overcast,320,2011-11-27 07:54:00
2:54 AM,37.9,32.0,79,29.98,10.0,NW,20.7,-,N/A,,Overcast,320,2011-11-27 08:54:00
3:54 AM,37.9,30.9,76,30.00,10.0,NW,21.9,32.2,N/A,,Overcast,320,2011-11-27 09:54:00
4:54 AM,37.9,30.9,76,30.00,10.0,NNW,19.6,25.3,N/A,,Overcast,330,2011-11-27 10:54:00
5:54 AM,37.0,32.0,82,30.03,10.0,NNW,16.1,-,N/A,,Overcast,330,2011-11-27 11:54:00
6:38 AM,37.4,33.8,87,30.03,6.0,NW,13.8,-,N/A,,Overcast,320,2011-11-27 12:38:00
6:54 AM,36.0,33.1,89,30.05,5.0,NW,13.8,21.9,N/A,,Overcast,320,2011-11-27 12:54:00
6:58 AM,35.6,33.8,93,30.04,4.0,NW,13.8,-,0.00,Rain,Light Rain,320,2011-11-27 12:58:00
7:54 AM,36.0,33.1,89,30.08,7.0,NW,16.1,-,0.00,,Overcast,320,2011-11-27 13:54:00
8:54 AM,35.6,33.8,93,30.07,6.0,NNW,13.8,-,N/A,,Overcast,330,2011-11-27 14:54:00
9:23 AM,35.6,33.8,93,30.08,3.0,NW,10.4,-,0.00,Rain,Light Rain,320,2011-11-27 15:23:00
9:54 AM,36.0,33.1,89,30.10,8.0,NW,18.4,21.9,0.00,,Overcast,320,2011-11-27 15:54:00
10:01 AM,35.6,33.8,93,30.09,10.0,NW,18.4,21.9,N/A,,Overcast,320,2011-11-27 16:01:00
10:54 AM,37.0,33.1,86,30.11,10.0,NW,16.1,24.2,0.00,,Overcast,320,2011-11-27 16:54:00
11:01 AM,37.4,32.0,81,30.09,10.0,NW,17.3,-,N/A,,Overcast,320,2011-11-27 17:01:00
11:54 AM,37.0,32.0,82,30.10,10.0,NW,17.3,-,N/A,,Overcast,320,2011-11-27 17:54:00
12:54 PM,37.0,30.9,79,30.10,10.0,NNW,12.7,24.2,N/A,,Overcast,330,2011-11-27 18:54:00
1:54 PM,37.0,30.0,76,30.09,10.0,NW,18.4,24.2,N/A,,Overcast,320,2011-11-27 19:54:00
2:54 PM,36.0,30.0,79,30.11,10.0,NNW,18.4,23.0,N/A,,Overcast,330,2011-11-27 20:54:00
3:54 PM,36.0,30.0,79,30.14,10.0,NW,12.7,-,N/A,,Overcast,320,2011-11-27 21:54:00
4:54 PM,35.1,30.9,85,30.15,10.0,NNW,10.4,-,0.00,,Overcast,330,2011-11-27 22:54:00
5:54 PM,36.0,28.9,76,30.17,10.0,North,13.8,-,0.00,,Overcast,350,2011-11-27 23:54:00
6:54 PM,35.1,28.9,78,30.17,10.0,North,10.4,-,N/A,,Overcast,350,2011-11-28 00:54:00
7:54 PM,35.1,28.0,76,30.18,10.0,North,9.2,-,N/A,,Overcast,350,2011-11-28 01:54:00
8:54 PM,35.1,27.0,72,30.18,10.0,North,11.5,-,N/A,,Overcast,350,2011-11-28 02:54:00
9:54 PM,35.1,27.0,72,30.18,10.0,North,11.5,-,N/A,,Overcast,350,2011-11-28 03:54:00
10:54 PM,35.1,27.0,72,30.17,10.0,North,10.4,-,N/A,,Overcast,350,2011-11-28 04:54:00
11:54 PM,34.0,27.0,75,30.17,10.0,North,10.4,-,N/A,,Overcast,10,2011-11-28 05:54:00